Weather in Romitan

Uzbekistan     39°55′59″N   64°22′57″E
temp.,
°C
wind,
m/s
gust,
m/s
humid.,
%
clouds,
%
prec.,
mm/h
press.,
hPa
HPBL,
m
27 september, mon
mon2723:00+25nw913360 0.0 1010639
02:00+20nw811440 0.0 1014747
05:00+15nw69680 0.0 1018583
08:00+15nnw45651 0.0 1020714
11:00+19n44430 0.0 10201124
14:00+23n44320 0.0 10181355
17:00+23n55300 0.0 10161306
20:00+19n47380 0.0 1016147
28 september, tue
tue2823:00+18n49410 0.0 1015177
02:00+17n510440 0.0 1014206
05:00+15n49475 0.0 1014150
08:00+17nne46430 0.0 1014177
11:00+24n32300 0.0 1014816
14:00+28n54195 0.0 10121343
17:00+27n65185 0.0 10121242
20:00+22n59259 0.0 1013141
29 september, wed
wed2923:00+20n49292 0.0 1013128
02:00+19nne5113283 0.0 1013200
05:00+19nne5123348 0.0 1014234
08:00+19nne712380 0.0 1015339
11:00+25nne88260 0.0 1016815
14:00+27n77210 0.0 10151415
17:00+26n77220 0.0 10151421
20:00+22nne511320 0.0 1016241
30 september, thu
thu3023:00+20nne613310 0.0 1017319
02:00+19nne714340 0.0 1016311
05:00+17nne814370 0.0 1016301
08:00+18nne814345 0.0 1016357
11:00+25nne992298 0.0 1015719
14:00+28nne881878 0.0 10131133
17:00+28nne89180 0.0 10121104
20:00+23nne7132497 0.0 1013355
1 october, fri
fri123:00+21nne8142980 0.0 1014352
02:00+18nne7123642 0.0 1015258
05:00+17nne611415 0.0 1016193
08:00+18nne68365 0.0 1017195
11:00+24n652399 0.0 1018546
14:00+25n7622100 0.0 10171021
17:00+23n672353 0.0 10191064
20:00+19nne510295 0.0 1020321